[[{"header":{"parameterUnit":"m.s-1","parameterCategory":1,"la1":30.2991,"la2":30.254,"lo1":-89.0895,"lo2":-89.0444,"dx":0.0017,"dy":0.0017,"nx":28,"ny":28,"refTime":"2022-12-16T09:00:00:Z","depth":0,"parameterNumber":2,"parameterNumberName":"U-component_of_WINDS"},"data":[0,0,0,0,0,0,0,0,0,0,0,0,0,0,0,0,0,0,0,0,0,0,0,0,0,0,0,0,0,0,0,0,0,0,0,0,0,0,0,0,0,0,0,0,0,0,0,0,0,0,0,0,0,0,0,0,0,0,0.1394,0.1394,0,0.1367,0.1366,0.1366,0.1378,0.1378,0.1379,0.138,0.1348,0.1347,0.1346,0,0,0,0,0,0,0,0,0,0,0,0,0,0.1455,0.1454,0.1394,0.1394,0.1394,0.1367,0.1366,0.1366,0.1377,0.1378,0.1379,0.138,0.1349,0.1347,0.1345,0,0,0,0,0,0,0,0,0,0,0,0,0,0.1428,0.1454,0.1395,0.1396,0.1396,0.1367,0.1366,0.1366,0.1377,0.1378,0.1379,0.138,0.135,0.1347,0.1345,0.1312,0,0,0.1339,0.1338,0,0,0,0,0,0,0,0,0.143,0.1426,0.1396,0.1396,0.1396,0.1377,0.1376,0.1348,0.1377,0.1384,0.138,0.1381,0.1357,0.1354,0.1347,0.131,0.1309,0.1338,0.1337,0.1336,0.1336,0,0,0,0,0,0,0,0.1432,0.1427,0.1383,0.1396,0.1396,0.1398,0.1395,0.1371,0.1365,0.1384,0.1385,0.1381,0.1357,0.1349,0.1346,0.1308,0.1338,0.1337,0.1335,0.1334,0.1243,0.1242,0,0,0,0,0,0,0.1434,0.1429,0.1384,0.1383,0.1416,0.1396,0.1393,0.1382,0.1366,0.1364,0.138,0.1382,0.1352,0.1349,0.1345,0.1304,0.1336,0.1334,0.1333,0.1244,0.1243,0.1241,0,0,0,0,0,0,0.1435,0.143,0.1385,0.1406,0.14,0.1394,0.1381,0.1381,0.1373,0.1363,0.1362,0.1373,0.1353,0.1348,0.132,0.1303,0.1333,0.1331,0.1245,0.1243,0.1242,0.1222,0,0,0,0,0,0,0.1437,0.143,0.1418,0.1406,0.1399,0.1361,0.138,0.1379,0.1369,0.1371,0.1356,0.1354,0.1353,0.1323,0.1318,0.1301,0.1329,0.1247,0.1244,0.1242,0.1224,0.122,0.1217,0,0,0,0,0,0.1439,0.1413,0.1417,0.1412,0.1384,0.136,0.1357,0.1356,0.1368,0.1355,0.1349,0.1355,0.1306,0.132,0.1314,0.1296,0.1248,0.1245,0.1243,0.1226,0.1221,0.1217,0,0,0,0,0,0,0.1422,0.1411,0.1416,0.1385,0.1374,0.1362,0.1346,0.1351,0.1335,0.1338,0.1337,0.1334,0.1305,0.1298,0.1314,0.1263,0.1279,0.1275,0.1268,0.1263,0.1259,0.1261,0.1328,0,0,0,0,0,0.1415,0.1398,0.1389,0.1363,0.1357,0.1353,0.1342,0.1343,0.1331,0.1326,0.1318,0.1305,0.1287,0.1275,0.1258,0.1224,0.1221,0.1209,0.1205,0.1202,0.1198,0.1179,0.1174,0.1233,0.1233,0.1233,0,0,0.14,0.1392,0.1381,0.1359,0.135,0.1332,0.1348,0.1328,0.1314,0.1323,0.1296,0.1289,0.1275,0.1244,0.123,0.1237,0.1181,0.1198,0.1196,0.1194,0.1176,0.117,0.1165,0.1231,0.1232,0.1232,0,0,0.1362,0.1355,0.1332,0.1323,0.131,0.1308,0.1302,0.129,0.1287,0.126,0.1266,0.1249,0.1218,0.1208,0.1198,0.1158,0.1163,0.1152,0.1131,0.1113,0.1108,0.1104,0.1089,0.1083,0.1149,0.1149,0.1149,0,0.1344,0.1317,0.1319,0.1299,0.1289,0.1297,0.1274,0.1265,0.1246,0.1239,0.1248,0.1209,0.12,0.1167,0.1157,0.1149,0.1142,0.1153,0.1109,0.1105,0.1101,0.1086,0.1081,0.1148,0.1148,0.1148,0.1148,0,0.1296,0.1277,0.126,0.1243,0.1232,0.1209,0.1207,0.1195,0.1197,0.1194,0.1166,0.1156,0.1137,0.1129,0.1131,0.1096,0.1101,0.1109,0.1125,0.1094,0.108,0.1075,0.1146,0.1146,0.1147,0.1147,0,0,0.1246,0.1231,0.1224,0.1217,0.1204,0.1189,0.1167,0.1149,0.1138,0.1126,0.1107,0.1081,0.1089,0.1078,0.1079,0.1063,0.1031,0.1074,0.1073,0.1065,0.0991,0.0983,0.0977,0.1035,0.1034,0.1033,0.0991,0,0.1206,0.1169,0.117,0.1135,0.1117,0.1125,0.1106,0.1096,0.1092,0.1076,0.1072,0.1053,0.1065,0.1059,0.1044,0.1038,0.1016,0.1041,0.1016,0.1015,0.1018,0.097,0.0962,0.0923,0.0986,0.0985,0.0985,0,0.1155,0.1142,0.1105,0.1094,0.1087,0.107,0.1054,0.1039,0.1027,0.1025,0.1014,0.1017,0.0994,0.1012,0.098,0.0997,0.0987,0.0983,0.0981,0.0978,0.0997,0.0964,0.0911,0.0905,0.0976,0.0977,0.0978,0,0.1121,0.1094,0.1068,0.1061,0.1049,0.1036,0.103,0.102,0.1009,0.0995,0.0988,0.0971,0.0961,0.0948,0.0946,0.0959,0.0914,0.0931,0.0911,0.0911,0.09,0.09,0.0843,0.0895,0.0895,0.0896,0.0896,0,0.1076,0.1053,0.1052,0.1036,0.1011,0.1013,0.0987,0.0982,0.0972,0.0955,0.0962,0.0945,0.0945,0.0928,0.0926,0.09,0.0896,0.0893,0.0893,0.0892,0.0892,0.0884,0.0886,0.0894,0.0894,0.0895,0.0895,0,0.1033,0.1032,0.1004,0.0995,0.0992,0.0973,0.0965,0.095,0.0947,0.0925,0.092,0.0915,0.0896,0.0894,0.087,0.087,0.0837,0.084,0.0841,0.0841,0.082,0.0822,0.0755,0.0746,0.0806,0.0805,0.0805,0,0.1003,0.0986,0.0975,0.0965,0.0958,0.0941,0.093,0.0932,0.092,0.0906,0.0892,0.0873,0.0858,0.0826,0.082,0.0802,0.0804,0.0782,0.0802,0.0801,0.0803,0.0803,0.0801,0.0778,0.0777,0.0777,0.0777,0,0.0951,0.0952,0.0937,0.0921,0.0909,0.0896,0.0885,0.0876,0.0876,0.0862,0.0843,0.0831,0.0808,0.0789,0.0772,0.0765,0.077,0.0771,0.0765,0.0763,0.0764,0.0762,0.083,0.0772,0.0772,0.0773,0.0773,0.0773,0.0913,0.0898,0.0888,0.0871,0.0863,0.0852,0.0837,0.0833,0.0817,0.0799,0.0801,0.0779,0.0768,0.0745,0.0737,0.072,0.0727,0.0719,0.0716,0.0714,0.0711,0.0768,0.0717,0.0717,0.0717,0.0717,0.0717,0,0.086,0.0855,0.0839,0.0823,0.081,0.0818,0.0806,0.0793,0.0774,0.0764,0.0749,0.0727,0.0708,0.0702,0.0684,0.0671,0.0673,0.0666,0.0666,0.0664,0.0706,0.0713,0.0665,0.0665,0.0665,0.0665,0.0665,0.0665,0.0831,0.0806,0.0805,0.0775,0.077,0.0749,0.0742,0.0731,0.0723,0.0698,0.0683,0.0679,0.067,0.0652,0.0635,0.0633,0.0626,0.0618,0.0617,0.0656,0.0661,0.0666,0.0672,0.0616,0.0616,0.0576,0.0576,0.0576]},{"header":{"parameterUnit":"m.s-1","parameterCategory":1,"la1":30.2991,"la2":30.254,"lo1":-89.0895,"lo2":-89.0444,"dx":0.0017,"dy":0.0017,"nx":28,"ny":28,"refTime":"2022-12-16T09:00:00:Z","depth":0,"parameterNumber":3,"parameterNumberName":"V-component_of_WINDS"},"data":[0,0,0,0,0,0,0,0,0,0,0,0,0,0,0,0,0,0,0,0,0,0,0,0,0,0,0,0,0,0,0,0,0,0,0,0,0,0,0,0,0,0,0,0,0,0,0,0,0,0,0,0,0,0,0,0,0,0,-5.8578,-5.858,0,-5.8677,-5.8678,-5.8679,-5.8642,-5.864,-5.8638,-5.8636,-5.8731,-5.8736,-5.874,0,0,0,0,0,0,0,0,0,0,0,0,0,-5.8353,-5.8357,-5.8578,-5.858,-5.8581,-5.8677,-5.8678,-5.868,-5.8643,-5.864,-5.8637,-5.8635,-5.873,-5.8735,-5.8741,0,0,0,0,0,0,0,0,0,0,0,0,0,-5.8451,-5.8359,-5.8578,-5.8574,-5.8575,-5.8677,-5.8678,-5.868,-5.8643,-5.864,-5.8636,-5.8633,-5.8728,-5.8735,-5.8741,-5.8852,0,0,-5.8763,-5.8766,0,0,0,0,0,0,0,0,-5.8446,-5.8459,-5.8573,-5.8575,-5.8575,-5.8644,-5.8634,-5.8737,-5.8644,-5.8617,-5.8635,-5.8632,-5.8705,-5.8713,-5.8739,-5.8856,-5.886,-5.8763,-5.8768,-5.8771,-5.8772,0,0,0,0,0,0,0,-5.8439,-5.8455,-5.8617,-5.8575,-5.8576,-5.8566,-5.8576,-5.8653,-5.8678,-5.8619,-5.8617,-5.8629,-5.8704,-5.8732,-5.8741,-5.8862,-5.8763,-5.8769,-5.8774,-5.8776,-5.9075,-5.9078,0,0,0,0,0,0,-5.8432,-5.845,-5.8614,-5.862,-5.8501,-5.8573,-5.8584,-5.8625,-5.8677,-5.8682,-5.8632,-5.8627,-5.8722,-5.8733,-5.8744,-5.8877,-5.877,-5.8777,-5.8781,-5.9071,-5.9076,-5.908,0,0,0,0,0,0,-5.8428,-5.8447,-5.861,-5.8534,-5.8554,-5.858,-5.8627,-5.8629,-5.8657,-5.8687,-5.8691,-5.8656,-5.872,-5.8734,-5.8826,-5.888,-5.878,-5.8786,-5.9067,-5.9072,-5.9078,-5.9144,0,0,0,0,0,0,-5.8421,-5.8446,-5.8489,-5.8536,-5.8559,-5.8692,-5.863,-5.8633,-5.867,-5.8664,-5.8711,-5.8715,-5.8718,-5.8816,-5.8833,-5.8888,-5.8792,-5.9062,-5.9069,-5.9076,-5.9137,-5.9151,-5.9163,0,0,0,0,0,-5.8413,-5.8502,-5.8492,-5.8512,-5.8613,-5.8695,-5.8708,-5.8711,-5.8674,-5.8717,-5.8737,-5.8714,-5.8871,-5.8825,-5.8844,-5.8902,-5.9058,-5.9067,-5.9075,-5.9131,-5.9148,-5.9163,0,0,0,0,0,0,-5.8459,-5.8508,-5.8497,-5.8604,-5.8646,-5.8689,-5.8743,-5.8729,-5.8781,-5.8773,-5.8773,-5.8784,-5.8879,-5.8899,-5.8847,-5.9012,-5.8959,-5.8972,-5.8995,-5.9012,-5.9024,-5.9017,-5.8798,0,0,0,0,0,-5.8482,-5.8546,-5.8585,-5.8675,-5.8697,-5.8717,-5.8752,-5.8752,-5.8794,-5.8811,-5.8837,-5.8878,-5.8937,-5.8975,-5.9031,-5.914,-5.9149,-5.9189,-5.9202,-5.9212,-5.9223,-5.9283,-5.9301,-5.9107,-5.9107,-5.9107,0,0,-5.8529,-5.8564,-5.8604,-5.8686,-5.8718,-5.8783,-5.8732,-5.8802,-5.885,-5.8821,-5.891,-5.8931,-5.8976,-5.9077,-5.9123,-5.9097,-5.9279,-5.9223,-5.9231,-5.9237,-5.9293,-5.9312,-5.9328,-5.9113,-5.9112,-5.9111,0,0,-5.8649,-5.8682,-5.8762,-5.8796,-5.8846,-5.8859,-5.8878,-5.8924,-5.8937,-5.9026,-5.9006,-5.9062,-5.9163,-5.9197,-5.9227,-5.9361,-5.9342,-5.9379,-5.9447,-5.9505,-5.952,-5.9534,-5.9581,-5.9598,-5.9389,-5.939,-5.939,0,-5.8701,-5.88,-5.8803,-5.8877,-5.8913,-5.8892,-5.8972,-5.9004,-5.907,-5.9095,-5.9065,-5.9193,-5.9222,-5.9331,-5.9364,-5.9389,-5.941,-5.9373,-5.9518,-5.9531,-5.9544,-5.959,-5.9608,-5.9394,-5.9393,-5.9393,-5.9392,0,-5.8861,-5.893,-5.8987,-5.9054,-5.9097,-5.9173,-5.9187,-5.9229,-5.9225,-5.924,-5.9332,-5.9366,-5.9429,-5.9454,-5.945,-5.9563,-5.9546,-5.9517,-5.9464,-5.9567,-5.9609,-5.9627,-5.94,-5.9398,-5.9397,-5.9396,0,0,-5.9011,-5.908,-5.9101,-5.9131,-5.9186,-5.9239,-5.9314,-5.9377,-5.9414,-5.9459,-5.9522,-5.9608,-5.9583,-5.9618,-5.9617,-5.9668,-5.9772,-5.9633,-5.9634,-5.9658,-5.9898,-5.9919,-5.994,-5.976,-5.9763,-5.9766,-5.9895,0,-5.9135,-5.9269,-5.9275,-5.9396,-5.946,-5.9441,-5.9506,-5.9546,-5.9563,-5.9618,-5.9635,-5.9697,-5.9659,-5.9679,-5.9729,-5.9749,-5.982,-5.9739,-5.9816,-5.9819,-5.9806,-5.9962,-5.9984,-6.0104,-5.9911,-5.9914,-5.9916,0,-5.9297,-5.9351,-5.9479,-5.9526,-5.9553,-5.9612,-5.9671,-5.9724,-5.9769,-5.9777,-5.9817,-5.9809,-5.9884,-5.9829,-5.9933,-5.9878,-5.9909,-5.9924,-5.9928,-5.9935,-5.9874,-5.9973,-6.0143,-6.0161,-5.9943,-5.994,-5.9939,0,-5.9394,-5.9498,-5.9589,-5.9615,-5.9672,-5.9714,-5.9739,-5.9781,-5.9819,-5.987,-5.9894,-5.9953,-5.9985,-6.0029,-6.0037,-5.9996,-6.0141,-6.0086,-6.0149,-6.0149,-6.018,-6.0177,-6.0357,-6.02,-6.02,-6.02,-6.0199,0,-5.9532,-5.9611,-5.9633,-5.9689,-5.9777,-5.9783,-5.9869,-5.9891,-5.9929,-5.9987,-5.9974,-6.0029,-6.0036,-6.0092,-6.0098,-6.0183,-6.0197,-6.0205,-6.0206,-6.0206,-6.0206,-6.0227,-6.0219,-6.0204,-6.0203,-6.0203,-6.0202,0,-5.9655,-5.9673,-5.9771,-5.9818,-5.9831,-5.9894,-5.9933,-5.9986,-6.0001,-6.0076,-6.0093,-6.0117,-6.0183,-6.0195,-6.0272,-6.0276,-6.0377,-6.0369,-6.0363,-6.0362,-6.0424,-6.0418,-6.0623,-6.065,-6.0476,-6.0478,-6.0479,0,-5.9741,-5.9802,-5.9857,-5.9896,-5.9924,-5.9988,-6.0027,-6.0035,-6.0077,-6.0133,-6.0179,-6.0244,-6.0296,-6.0401,-6.0424,-6.0483,-6.0477,-6.0544,-6.0485,-6.0484,-6.0478,-6.0474,-6.048,-6.0556,-6.0557,-6.0559,-6.056,0,-5.9893,-5.99,-5.9959,-6.0021,-6.0069,-6.0118,-6.0164,-6.0197,-6.0211,-6.0258,-6.0326,-6.0367,-6.0447,-6.0511,-6.057,-6.0594,-6.058,-6.0579,-6.0597,-6.0598,-6.0592,-6.0596,-6.0394,-6.0574,-6.0573,-6.0572,-6.0571,-6.057,-6.0001,-6.0055,-6.0102,-6.0168,-6.0204,-6.0248,-6.03,-6.0324,-6.0381,-6.0449,-6.0449,-6.0524,-6.0567,-6.0645,-6.0673,-6.0731,-6.0709,-6.0734,-6.0741,-6.0747,-6.0753,-6.0583,-6.0741,-6.0741,-6.0741,-6.074,-6.074,0,-6.0153,-6.0183,-6.0243,-6.031,-6.0362,-6.0346,-6.0397,-6.044,-6.0507,-6.055,-6.0602,-6.0681,-6.0744,-6.0772,-6.0834,-6.0874,-6.0869,-6.089,-6.0887,-6.0893,-6.0769,-6.0748,-6.0893,-6.0893,-6.0893,-6.0893,-6.0893,-6.0893,-6.0238,-6.0328,-6.034,-6.0448,-6.0477,-6.0552,-6.0582,-6.0623,-6.0657,-6.0746,-6.0799,-6.0818,-6.0855,-6.0919,-6.0976,-6.0982,-6.1005,-6.1029,-6.1033,-6.0917,-6.0901,-6.0886,-6.0867,-6.1034,-6.1035,-6.1152,-6.1153,-6.1154]}]]